Regional Weather Roundup
Issued by NWS

Home | Current Version | Previous Version | Graphics & Text | Print | Product List | Glossary On
Versions: 1 2 3 4 5 6 7 8 9 10 11 12 13 14 15 16 17 18 19 20 21 22 23 24 25 26 27 28 29 30 31 32 33 34 35 36 37 38 39 40 41 42 43 44 45 46 47 48 49 50
000
ASUS45 KBOU 271007
RWRCO

WEATHER ROUNDUP FOR COLORADO
NATIONAL WEATHER SERVICE DENVER/BOULDER CO
400 AM MDT WED MAY 27 2015

NOTE: "FAIR" INDICATES FEW OR NO CLOUDS BELOW 12000 FEET WITH NO
SIGNIFICANT WEATHER AND/OR OBSTRUCTIONS TO VISIBILITY.

COZ001>005-013-030-031-271100-
...NORTHWEST COLORADO...

CITY           SKY/WX    TMP DP  RH WIND       PRES   REMARKS
CRAIG          CLOUDY    48  43  82 W3        30.14R
HAYDEN         CLOUDY    46  41  81 SE3       30.15S
MEEKER         CLOUDY    46  43  89 CALM      30.15R
MOUNT WERNER   NOT AVBL
STEAMBOAT SPGS CLOUDY    45  43  94 CALM      30.16R
WALDEN         CLOUDY    41  36  81 S8        30.19S
$$

COZ006>008-011-271100-
...WEST CENTRAL VALLEYS...

CITY           SKY/WX    TMP DP  RH WIND       PRES   REMARKS
GRAND JUNCTION PTCLDY    45  45 100 CALM      30.11R
MONTROSE       PTCLDY    44  42  93 SW3       30.18R
EAGLE          MOCLDY    46  43  87 CALM      30.18F
RIFLE          MOCLDY    47  44  90 CALM      30.13S
DELTA          PTCLDY    47  44  89 MISG      30.15R
NUCLA          MOCLDY    45  41  87 CALM      30.20R
$$

COZ017>023-064>068-271100-
...SOUTHWEST COLORADO...

CITY           SKY/WX    TMP DP  RH WIND       PRES   REMARKS
DURANGO        MOCLDY    45  43  93 CALM      30.19R
CORTEZ         PTCLDY    45  40  82 CALM      30.15S
PAGOSA SPRINGS PTCLDY    44  42  91 E3        30.26S
TELLURIDE      PTCLDY    40  36  85 CALM      30.33R
WOLF CREEK PAS NOT AVBL
$$

COZ009-010-012-014-032>034-037-058>063-271100-
...CENTRAL COLORADO...

CITY           SKY/WX    TMP DP  RH WIND       PRES   REMARKS
ASPEN          NOT AVBL
BUENA VISTA    MOCLDY    42  35  78 CALM      30.23R
COPPER MTN     CLOUDY    37  30  75 SW10      30.37R
BERTHOUD PASS  CLOUDY    28  21  74 W16G23    30.38R WCI  17
COTTONWOOD PAS MOCLDY    45  32  61 CALM      30.29S
GUNNISON       PTCLDY    39  34  81 CALM      30.29R
KREMMLING      CLOUDY    45  37  76 CALM      30.20S
LEADVILLE      CLOUDY    35  32  88 CALM      30.27S
SALIDA         MOCLDY    46  36  68 CALM      30.29R
SUNLIGHT       MOCLDY    36  36 100 CALM      30.33F
WILKERSON PASS PTCLDY    32  30  93 SW9       30.36S WCI  24
$$

COZ069>075-271100-
...SAN LUIS VALLEY/SANGRE DE CRISTO MOUNTAINS...

CITY           SKY/WX    TMP DP  RH WIND       PRES   REMARKS
ALAMOSA        PTCLDY    38  35  89 CALM      30.24R
LA VETA PASS   PTCLDY   N/A N/A N/A MISG      30.32R
SAGUACHE       MOCLDY    37  36  93 NW12      30.27R
$$

COZ035-036-038>040-271100-
...NORTHERN COLORADO FRONT RANGE...

CITY           SKY/WX    TMP DP  RH WIND       PRES   REMARKS
DENVER INTL AP PTCLDY    50  44  80 W14       30.06F
DMNS CITY PARK   N/A     50  43  78 SW8       30.06F
AURORA         NOT AVBL
FRONT RANGE AP PTCLDY    52  45  76 SW9       30.06F
ERIE MUNI ARPT PTCLDY    45  44  95 SW3       30.06S
BOULDER MUN AP PTCLDY    50  45  81 CALM      30.06F
CENTENNIAL     PTCLDY    48  43  82 S3        30.08F
BROOMFIELD     PTCLDY    52  41  66 W5        30.08S
FORT COLLINS   MOCLDY    52  48  87 N6        30.07S
LONGMONT       MOCLDY    47  44  91 CALM      30.08S
$$

COZ041-046-047-076>085-087-088-271100-
...PIKES PEAK/PALMER DIVIDE AND SOUTHERN FOOTHILLS...

CITY           SKY/WX    TMP DP  RH WIND       PRES   REMARKS
COLO. SPRINGS  MOCLDY    46  44  93 N9        30.14F
A. F. ACADEMY  PTCLDY    41  41  99 N8        30.14F
ELLICOTT       MOCLDY   N/A N/A N/A CALM      30.13R
FALCON         MOCLDY    45  42  91 W7        30.16S
FORT CARSON    NOT AVBL
LIMON          CLOUDY    51  47  86 SW9       30.09R
MONUMENT HILL    N/A     43  41  93 MISG      30.15S
TRINIDAD       CLEAR     50  43  77 CALM      30.13R
$$

COZ042>045-048>051-090-091-271100-
...NORTHEAST COLORADO...

CITY           SKY/WX    TMP DP  RH WIND       PRES   REMARKS
GREELEY ARPT   MOCLDY    48  46  93 CALM      30.05S
AKRON          MOCLDY    52  50  93 S9        30.05S
BURLINGTON     CLOUDY    54  50  86 S13       30.07S
WRAY           MOCLDY    54  51  90 E6        30.05F
STERLING       MOCLDY    48  46  93 CALM      30.03S
HOLYOKE        MOCLDY    55  50  82 SE10      30.06F
FORT MORGAN    MOCLDY    51  49  90 CALM      30.05S
$$

COZ086-089-092>099-271100-
...SOUTHEAST COLORADO...

CITY           SKY/WX    TMP DP  RH WIND       PRES   REMARKS
PUEBLO         PTCLDY    50  49  96 CALM      30.10R
LA JUNTA       MOCLDY    54  51  90 W6        30.09R
LAMAR          CLOUDY    58  53  84 E8        30.03S
SPRINGFIELD      N/A     53  48  83 W7        30.10R
$$


USA.gov is the U.S. government's official web portal to all federal, state and local government web resources and services.